N137WZ XXXX-YBCG

Flight info

Callsign N137WZ
Flight time N/A
Altitude 1000
Route Q1
Aircraft H60/L-VGD/A

Departure

Time N/A
Airport XXXX

Arrival

Time 2026-05-06 12:04
Airport Gold Coast Airport (YBCG)
Time Latitude Longitude Altitude Speed Heading
2026-05-06 11:55 -28.00482 153.37508 19 ft 0 kts 110°
2026-05-06 11:55 -28.00491 153.37504 26 ft 10 kts 125°
2026-05-06 11:56 -28.00690 153.37534 217 ft 55 kts 172°
2026-05-06 11:56 -28.01210 153.37791 486 ft 117 kts 120°
2026-05-06 11:56 -28.01328 153.38762 643 ft 131 kts 82°
2026-05-06 11:56 -28.01231 153.39797 791 ft 136 kts 75°
2026-05-06 11:57 -28.01108 153.40868 845 ft 140 kts 74°
2026-05-06 11:57 -28.00843 153.41937 884 ft 141 kts 65°
2026-05-06 11:57 -28.00532 153.42985 990 ft 139 kts 63°
2026-05-06 11:57 -28.00792 153.43893 837 ft 133 kts 152°
2026-05-06 11:58 -28.01667 153.44208 981 ft 140 kts 174°
2026-05-06 11:58 -28.02648 153.44361 1004 ft 142 kts 174°
2026-05-06 11:58 -28.03622 153.44506 1023 ft 139 kts 175°
2026-05-06 11:58 -28.04493 153.44837 1013 ft 126 kts 131°
2026-05-06 11:59 -28.04267 153.45583 846 ft 120 kts 21°
2026-05-06 11:59 -28.03647 153.45088 1096 ft 109 kts 281°
2026-05-06 11:59 -28.03729 153.44449 1093 ft 78 kts 210°
2026-05-06 11:59 -28.04118 153.44156 1096 ft 56 kts 174°
2026-05-06 12:00 -28.04431 153.44417 1041 ft 79 kts 132°
2026-05-06 12:00 -28.05151 153.44611 987 ft 125 kts 159°
2026-05-06 12:00 -28.06033 153.44874 956 ft 132 kts 159°
2026-05-06 12:00 -28.06895 153.45122 993 ft 125 kts 158°
2026-05-06 12:01 -28.07709 153.45417 1002 ft 121 kts 154°
2026-05-06 12:01 -28.08464 153.45767 963 ft 115 kts 149°
2026-05-06 12:01 -28.09196 153.46098 1040 ft 112 kts 150°
2026-05-06 12:01 -28.09914 153.46435 1000 ft 114 kts 153°
2026-05-06 12:02 -28.10626 153.46818 893 ft 112 kts 149°
2026-05-06 12:02 -28.11310 153.47239 969 ft 113 kts 147°
2026-05-06 12:02 -28.12003 153.47655 870 ft 112 kts 143°
2026-05-06 12:02 -28.12666 153.48052 855 ft 105 kts 141°
2026-05-06 12:03 -28.13300 153.48421 762 ft 100 kts 141°
2026-05-06 12:03 -28.13910 153.48802 663 ft 101 kts 138°
2026-05-06 12:03 -28.14492 153.49206 489 ft 94 kts 135°
2026-05-06 12:03 -28.15013 153.49572 385 ft 83 kts 131°
2026-05-06 12:04 -28.15474 153.49913 228 ft 73 kts 126°
2026-05-06 12:04 -28.15818 153.50222 134 ft 52 kts 117°
2026-05-06 12:04 -28.16011 153.50444 92 ft 29 kts 111°
2026-05-06 12:04 -28.16104 153.50564 99 ft 19 kts 105°
2026-05-06 12:05 -28.16160 153.50688 82 ft 15 kts 99°
2026-05-06 12:05 -28.16188 153.50767 55 ft 9 kts 93°
2026-05-06 12:05 -28.16195 153.50801 55 ft 1 kts 87°
2026-05-06 12:05 -28.16200 153.50819 51 ft 7 kts 82°
2026-05-06 12:06 -28.16205 153.50895 42 ft 9 kts 76°
2026-05-06 12:06 -28.16207 153.50938 34 ft 1 kts 77°
2026-05-06 12:06 -28.16207 153.50941 27 ft 0 kts 77°
2026-05-06 12:06 -28.16203 153.50968 24 ft 4 kts 92°
2026-05-06 12:07 -28.16219 153.51002 24 ft 0 kts 134°
2026-05-06 12:07 -28.16240 153.51015 26 ft 10 kts 88°
2026-05-06 12:07 -28.16249 153.51024 22 ft 0 kts 39°